Location: Barcelona
(41.3829°N, 2.1774°E)
Time: 13:27:20
(UTC+00:00)

ISS - Pass Details

Date: 12 July 2024
Orbit: 410 x 424 km, 51.6° (Epoch: 14 July)

Event Time Altitude Azimuth Distance (km) Brightness Sun altitude
Rises 20:58:12 0° 263° (W) 2,333 0.6 -14.4°
Reaches altitude 10° 21:00:29 10° 276° (W) 1,474 -0.3 -14.7°
Maximum altitude 21:03:22 27° 336° (NNW) 822 -1.5 -15.1°
Drops below altitude 10° 21:06:16 10° 38° (NE) 1,480 -0.8 -15.5°
Sets 21:08:34 0° 50° (NE) 2,345 0.0 -15.7°
